EXPRESS-AM5

Last updated on Sun Sep 06 2026 00:02:58 GMT+0000 (Coordinated Universal Time)

1 39487U 13077A 26248.47899993 -.00000291 00000+0 00000+0 0 9990 2 39487 0.0369 265.5151 0001367 236.9677 154.5688 1.00272486 47168
UTC large
Height (km)
Speed (km/s)
/
Latitude / Longitude
Inclination (degrees)
Orbital Period (minutes)
Azimuth
Elevation
Range (km)
Doppler Factor

Next 0 passes for location: London (51.5072 / 0.1276)

No passes found over London.
EXPRESS-AM5